SCP
0 0 0 0 0 0 0 0 0 0 0 0 0 0 0 0 0 0 0 0 0 0 0 0 0 0 0 0 0 0 0 0 0 0 0 0 0 0
0 0 0 0 0 0 0 0 0 0 0 0 0 0 0 0 0 0 0 0 0 0 0 0 0 0 0 0 0 0 0 0 0 0 0 0 0 0
0 0 0 0 0 0 0 0 0 0 0 0 0 0 0 0 0 0 0 0 0 0 0 0 0 0 0 0 0 0 0 0 0 0 0 0 0 0
0 0 0 0 0 0 0 0 0 0 0 0 0 0 0 0 0 0 0 0 0 0 0 0 0 0 0 0 0 0 0 0 0 0 0 0 0 0
0 0 0 0 0 0 0 0 0 0 0 0 0 0 0 0 0 0 0 0 0 0 0 0 0 0 0 0 0 0 0 0 0 0 0 0 0 0
0 0 0 0 0 0 0 0 0 0 0 0 0 0 0 0 0 0 0 0 0 0 0 0 0 0 0 0 0 0 0 0 0 0 0 0 0 0
0 0 0 0 0 0 0 0 0 0 0 0 0 0 0 0 0 0 0 0 0 0 0 0 0 0 0 0 0 0 0 0 0 0 0 0 0 0
0 0 0 0 0 0 0 0 0 0 0 0 0 0 0 0 0 0 0 0 0 0 0 0 0 0 0 0 0 0 0 0 0 0 0 0 0 0
0 0 0 0 0 0 0 0 0 0 0 0 0 0 0 0 0 0 0 0 0 0 0 0 0 0 0 0 0 0 0 0 0 0 0 0 0 0
0 0 0 0 0 0 0 0 0 0 0 0 0 0 0 0 0 0 0 0 0 0 0 0 0 0 0 0 0 0 0 0 0 0 0 0 0 0
0 0 0 0 0 0 0 0 0 0 0 0 0 0 0 0 0 0 0 0 0 0 0 0 0 0 0 0 0 0 0 0 0 0 0 0 0 0
0 0 0 0 0 0 0 0 0 0 0 0 0 0 0 0 0 0 0 0 0 0 0 0 0 0 0 0 0 0 0 0 0 0 0 0 0 0
0 0 0 0 0 0 0 0 0 0 0 0 0 0 0 0 0 0 0 0 0 0 0 0 0 0 0 0 0 0 0 0 0 0 0 0 0 0
0 0 0 0 0 0 0 0 0 0 0 0 0 0 0 0 0 0 0 0 0 0 0 0 0 0 0 0 0 0 0 0 0 0 0 0 0 0
0 0 0 0 0 0 0 0 0 0 0 0 0 0 0 0 0 0 0 0 0 0 0 0 0 0 0 0 0 0 0 0 0 0 0 0 0 0
0 0 0 0 0 0 0 0 0 0 0 0 0 0 0 0 0 0 0 0 0 0 0 0 0 0 0 0 0 0 0 0 0 0 0 0 0 0
0 0 0 0 0 0 0 0 0 0 0 0 0 0 0 0 0 0 0 0 0 0 0 0 0 0 0 0 0 0 0 0 0 0 0 0 0 0
0 0 0 0 0 0 0 0 0 0 0 0 0 0 0 0 0 0 0 0 0 0 0 0 0 0 0 0 0 0 0 0 0 0 0 0 0 0
0 0 0 0 0 0 0 0 0 0 0 0 0 0 0 0 0 0 0 0 0 0 0 0 0 0 0 0 0 0 0 0 0 0 0 0 -0 0
0 0 0 0 0 0 0 0 0 0 0 0 0 0 0 0 0 0 0 0 0 0 0 0 0 0 0 0 0 0 0 0 0 0 0 -0 0 -0
0 0 0 0 0 0 0 0 0 0 0 0 0 0 0 0 0 0 0 0 0 0 0 0 0 0 0 0 0 0 0 0 0 0 0 -0 -0 -0
0 0 0 0 0 0 0 0 0 0 0 0 0 0 0 0 0 0 0 0 0 0 0 0 0 0 0 0 0 0 0 0 0 0 0 0 0 -0
0 0 0 0 0 0 0 0 0 0 0 0 0 0 0 0 0 0 0 0 0 0 0 0 0 0 0 0 0 0 0 0 0 0 0 0 0 -0
Wind_Speed_500mb
32 33 33 33 31 30 28 26 23 19 20 13 12 10 10 12 12 19 23 25 28 29 29 29 27 25 24 25 28 27 29 30 30 30 27 24 27 32
30 33 34 31 32 32 28 29 26 24 24 16 17 18 17 17 21 27 28 28 26 25 29 32 32 33 35 34 32 33 35 38 37 33 31 33 34 32
35 34 31 30 32 40 36 31 29 30 33 32 33 30 29 27 27 30 31 37 40 36 34 35 38 41 45 44 41 40 43 44 41 42 42 41 40 38
40 37 37 33 31 34 37 41 36 34 33 35 31 33 34 35 33 36 39 39 45 47 44 44 42 41 41 44 48 51 56 50 50 49 48 49 47 47
45 42 39 37 32 33 34 42 44 43 42 41 41 39 38 37 36 39 46 54 54 45 43 43 45 51 50 50 51 52 53 51 46 44 51 54 54 54
49 49 46 43 39 35 34 36 42 46 42 41 46 42 40 39 38 46 55 55 44 35 38 44 48 43 44 46 49 52 54 58 59 56 58 61 65 68
58 53 52 49 43 42 38 38 35 41 45 45 46 46 49 44 43 48 51 44 45 41 43 39 41 46 45 44 44 41 41 41 42 45 49 53 56 55
67 56 54 53 51 46 44 42 36 40 42 43 45 45 48 42 43 51 43 42 49 47 43 46 45 45 43 44 44 42 40 39 44 50 53 54 54 57
67 59 46 53 48 45 45 43 43 40 41 41 45 46 43 42 49 49 44 44 48 48 50 51 47 45 44 48 47 47 48 51 58 53 40 39 44 56
66 54 49 46 48 45 43 45 42 42 40 42 44 48 49 47 50 46 49 51 51 47 47 53 47 52 47 48 53 57 53 42 40 41 44 42 45 47
44 43 43 47 43 42 41 40 39 38 35 40 44 43 44 45 44 47 50 53 55 49 44 50 40 49 57 63 57 38 34 40 38 40 43 48 51 51
39 40 40 41 38 41 41 41 42 37 40 43 44 40 41 39 45 50 45 41 36 33 34 43 49 51 55 57 47 44 41 41 41 44 48 50 49 57
41 38 37 38 41 41 34 35 36 37 38 34 34 30 31 41 39 29 25 26 33 39 41 43 49 50 44 50 55 50 47 44 52 60 58 52 54 58
36 30 34 39 39 34 32 33 33 33 29 29 24 23 29 24 22 22 25 31 40 44 42 42 43 37 42 50 55 51 45 54 58 54 51 53 59 67
37 38 37 37 35 30 24 24 28 28 25 20 20 22 24 21 23 24 30 38 45 41 31 29 33 34 40 49 56 52 62 56 55 62 62 63 68 72
46 40 37 34 31 28 25 25 25 22 21 18 18 22 25 26 27 31 37 43 36 32 25 24 27 36 45 44 43 51 50 55 67 71 72 73 77 83
46 42 37 33 27 25 25 25 22 23 22 22 25 26 30 33 28 31 36 35 33 35 33 23 26 36 39 41 45 54 47 56 68 75 77 84 87 95
44 42 38 32 28 28 27 25 24 23 23 27 29 29 32 29 30 32 32 29 31 31 34 32 37 35 38 45 47 46 48 58 71 75 75 87 100 102
39 34 30 29 32 30 26 24 22 17 19 21 23 25 27 31 37 33 23 28 29 29 29 33 34 38 50 58 57 45 50 61 72 75 79 89 101 103
33 32 30 31 32 25 23 25 22 18 15 18 21 26 32 34 23 20 24 26 25 31 30 29 33 40 49 54 52 50 49 64 67 74 82 95 97 102
37 31 30 34 31 26 26 28 24 19 16 21 23 26 27 23 21 23 22 22 28 29 33 37 34 39 42 45 49 52 59 58 57 64 84 91 88 101
28 29 35 36 28 28 33 31 22 19 21 19 17 19 22 22 19 22 24 26 27 27 34 33 33 35 42 48 47 51 64 67 55 55 69 79 76 83
31 30 30 33 31 26 32 28 26 26 22 20 20 20 22 20 18 22 26 27 29 27 31 34 34 33 41 47 45 54 60 65 65 69 70 85 85 85
Wind_Direction_500mb
232 235 242 243 248 242 241 243 248 254 288 271 243 277 286 294 298 297 295 320 309 296 301 302 307 309 315 298 297 298 298 298 301 303 296 294 300 299
235 237 237 242 243 241 247 242 242 249 259 273 262 283 297 298 301 312 303 298 304 307 306 302 300 296 293 292 291 295 294 292 286 284 286 292 297 297
236 237 238 240 245 241 246 248 244 244 251 258 273 276 281 295 301 309 299 294 293 294 293 295 291 292 290 280 279 283 287 286 279 274 276 277 279 279
240 236 239 237 244 241 249 246 252 253 258 263 262 269 276 288 297 297 303 305 300 287 285 287 292 292 294 284 280 283 285 282 275 276 274 270 272 280
246 244 243 243 244 244 250 251 255 265 261 264 267 275 278 283 291 294 304 306 299 289 290 288 286 290 290 283 281 282 284 285 282 276 269 268 271 274
252 247 242 242 252 253 255 259 260 262 260 264 267 268 276 287 298 303 304 306 297 288 288 289 293 293 294 292 287 283 278 276 277 275 274 272 272 274
253 247 245 242 249 255 257 262 266 265 261 267 272 281 285 291 295 306 306 297 293 296 296 298 295 299 302 296 294 289 284 286 286 285 280 277 279 277
251 250 249 246 246 257 258 257 261 269 266 273 276 284 287 290 293 301 293 296 299 304 301 298 302 304 304 303 305 299 292 292 293 288 284 279 276 273
257 254 250 244 248 254 261 263 256 275 268 273 277 282 283 288 294 296 294 295 296 301 297 297 298 296 298 301 304 301 299 302 298 296 292 284 281 274
255 254 248 244 248 254 264 262 256 266 269 272 277 284 285 287 293 288 291 295 295 296 295 296 299 300 301 304 306 307 304 296 296 294 289 285 285 285
241 242 238 241 247 251 258 253 263 261 264 275 281 280 282 286 282 282 289 292 294 295 292 297 305 307 309 309 315 315 308 303 296 300 300 293 292 291
230 225 226 236 244 255 261 261 255 268 275 282 285 286 289 286 287 288 289 289 293 303 308 309 311 316 317 316 316 317 315 310 303 304 312 300 294 296
211 213 224 234 246 256 251 249 260 269 276 274 279 283 295 299 295 291 292 298 304 306 313 306 307 310 306 306 314 317 316 315 314 312 306 302 297 295
204 218 225 235 243 247 254 253 254 261 262 264 268 289 315 319 309 301 302 309 310 308 307 302 301 308 310 313 317 322 323 324 321 317 312 302 298 299
206 221 226 229 229 219 231 233 248 248 245 242 268 290 318 318 309 301 307 309 308 305 304 297 298 304 311 309 310 314 321 330 334 326 318 310 308 308
212 218 219 213 218 222 234 246 232 228 223 245 272 284 295 301 302 300 307 314 311 311 306 298 306 312 315 310 310 318 320 325 331 329 323 319 317 316
212 216 212 214 225 236 228 218 219 223 239 257 270 280 287 293 290 293 306 312 307 315 318 314 297 313 316 311 310 318 319 322 327 327 324 321 319 320
205 212 211 220 227 210 210 214 224 235 250 260 273 284 289 287 294 300 304 303 307 312 315 321 328 326 318 315 323 322 320 324 327 327 327 324 322 324
203 209 205 201 199 206 212 228 228 242 258 266 279 293 288 293 299 299 296 301 307 306 310 323 333 327 326 325 327 332 329 330 327 325 329 329 326 324
196 199 198 197 206 218 229 230 230 240 263 280 290 292 291 295 292 293 297 304 305 311 315 319 323 321 327 318 318 329 331 329 327 328 333 334 333 330
194 198 208 213 215 220 228 233 237 243 269 293 292 287 283 282 291 296 297 295 304 311 320 321 323 326 328 327 323 322 327 334 331 331 344 343 334 327
206 214 219 223 227 232 229 231 240 259 285 285 290 286 268 265 286 302 295 293 303 308 317 321 325 330 335 334 321 323 329 335 335 334 344 354 341 323
221 222 224 235 238 238 229 238 262 269 281 289 302 296 267 264 286 304 297 292 299 305 314 321 329 329 338 341 325 327 333 337 340 341 345 353 355 354
Wind_Speed_850mb
32 33 33 33 31 30 28 26 23 19 20 13 12 10 10 12 12 19 23 25 28 29 29 29 27 25 24 25 28 27 29 30 30 30 27 24 27 32
30 33 34 31 32 32 28 29 26 24 24 16 17 18 17 17 21 27 28 28 26 25 29 32 32 33 35 34 32 33 35 38 37 33 31 33 34 32
35 34 31 30 32 40 36 31 29 30 33 32 33 30 29 27 27 30 31 37 40 36 34 35 38 41 45 44 41 40 43 44 41 42 42 41 40 38
40 37 37 33 31 34 37 41 36 34 33 35 31 33 34 35 33 36 39 39 45 47 44 44 42 41 41 44 48 51 56 50 50 49 48 49 47 47
45 42 39 37 32 33 34 42 44 43 42 41 41 39 38 37 36 39 46 54 54 45 43 43 45 51 50 50 51 52 53 51 46 44 51 54 54 54
49 49 46 43 39 35 34 36 42 46 42 41 46 42 40 39 38 46 55 55 44 35 38 44 48 43 44 46 49 52 54 58 59 56 58 61 65 68
58 53 52 49 43 42 38 38 35 41 45 45 46 46 49 44 43 48 51 44 45 41 43 39 41 46 45 44 44 41 41 41 42 45 49 53 56 55
67 56 54 53 51 46 44 42 36 40 42 43 45 45 48 42 43 51 43 42 49 47 43 46 45 45 43 44 44 42 40 39 44 50 53 54 54 57
67 59 46 53 48 45 45 43 43 40 41 41 45 46 43 42 49 49 44 44 48 48 50 51 47 45 44 48 47 47 48 51 58 53 40 39 44 56
66 54 49 46 48 45 43 45 42 42 40 42 44 48 49 47 50 46 49 51 51 47 47 53 47 52 47 48 53 57 53 42 40 41 44 42 45 47
44 43 43 47 43 42 41 40 39 38 35 40 44 43 44 45 44 47 50 53 55 49 44 50 40 49 57 63 57 38 34 40 38 40 43 48 51 51
39 40 40 41 38 41 41 41 42 37 40 43 44 40 41 39 45 50 45 41 36 33 34 43 49 51 55 57 47 44 41 41 41 44 48 50 49 57
41 38 37 38 41 41 34 35 36 37 38 34 34 30 31 41 39 29 25 26 33 39 41 43 49 50 44 50 55 50 47 44 52 60 58 52 54 58
36 30 34 39 39 34 32 33 33 33 29 29 24 23 29 24 22 22 25 31 40 44 42 42 43 37 42 50 55 51 45 54 58 54 51 53 59 67
37 38 37 37 35 30 24 24 28 28 25 20 20 22 24 21 23 24 30 38 45 41 31 29 33 34 40 49 56 52 62 56 55 62 62 63 68 72
46 40 37 34 31 28 25 25 25 22 21 18 18 22 25 26 27 31 37 43 36 32 25 24 27 36 45 44 43 51 50 55 67 71 72 73 77 83
46 42 37 33 27 25 25 25 22 23 22 22 25 26 30 33 28 31 36 35 33 35 33 23 26 36 39 41 45 54 47 56 68 75 77 84 87 95
44 42 38 32 28 28 27 25 24 23 23 27 29 29 32 29 30 32 32 29 31 31 34 32 37 35 38 45 47 46 48 58 71 75 75 87 100 102
39 34 30 29 32 30 26 24 22 17 19 21 23 25 27 31 37 33 23 28 29 29 29 33 34 38 50 58 57 45 50 61 72 75 79 89 101 103
33 32 30 31 32 25 23 25 22 18 15 18 21 26 32 34 23 20 24 26 25 31 30 29 33 40 49 54 52 50 49 64 67 74 82 95 97 102
37 31 30 34 31 26 26 28 24 19 16 21 23 26 27 23 21 23 22 22 28 29 33 37 34 39 42 45 49 52 59 58 57 64 84 91 88 101
28 29 35 36 28 28 33 31 22 19 21 19 17 19 22 22 19 22 24 26 27 27 34 33 33 35 42 48 47 51 64 67 55 55 69 79 76 83
31 30 30 33 31 26 32 28 26 26 22 20 20 20 22 20 18 22 26 27 29 27 31 34 34 33 41 47 45 54 60 65 65 69 70 85 85 85
Wind_Direction_850mb
232 235 242 243 248 242 241 243 248 254 288 271 243 277 286 294 298 297 295 320 309 296 301 302 307 309 315 298 297 298 298 298 301 303 296 294 300 299
235 237 237 242 243 241 247 242 242 249 259 273 262 283 297 298 301 312 303 298 304 307 306 302 300 296 293 292 291 295 294 292 286 284 286 292 297 297
236 237 238 240 245 241 246 248 244 244 251 258 273 276 281 295 301 309 299 294 293 294 293 295 291 292 290 280 279 283 287 286 279 274 276 277 279 279
240 236 239 237 244 241 249 246 252 253 258 263 262 269 276 288 297 297 303 305 300 287 285 287 292 292 294 284 280 283 285 282 275 276 274 270 272 280
246 244 243 243 244 244 250 251 255 265 261 264 267 275 278 283 291 294 304 306 299 289 290 288 286 290 290 283 281 282 284 285 282 276 269 268 271 274
252 247 242 242 252 253 255 259 260 262 260 264 267 268 276 287 298 303 304 306 297 288 288 289 293 293 294 292 287 283 278 276 277 275 274 272 272 274
253 247 245 242 249 255 257 262 266 265 261 267 272 281 285 291 295 306 306 297 293 296 296 298 295 299 302 296 294 289 284 286 286 285 280 277 279 277
251 250 249 246 246 257 258 257 261 269 266 273 276 284 287 290 293 301 293 296 299 304 301 298 302 304 304 303 305 299 292 292 293 288 284 279 276 273
257 254 250 244 248 254 261 263 256 275 268 273 277 282 283 288 294 296 294 295 296 301 297 297 298 296 298 301 304 301 299 302 298 296 292 284 281 274
255 254 248 244 248 254 264 262 256 266 269 272 277 284 285 287 293 288 291 295 295 296 295 296 299 300 301 304 306 307 304 296 296 294 289 285 285 285
241 242 238 241 247 251 258 253 263 261 264 275 281 280 282 286 282 282 289 292 294 295 292 297 305 307 309 309 315 315 308 303 296 300 300 293 292 291
230 225 226 236 244 255 261 261 255 268 275 282 285 286 289 286 287 288 289 289 293 303 308 309 311 316 317 316 316 317 315 310 303 304 312 300 294 296
211 213 224 234 246 256 251 249 260 269 276 274 279 283 295 299 295 291 292 298 304 306 313 306 307 310 306 306 314 317 316 315 314 312 306 302 297 295
204 218 225 235 243 247 254 253 254 261 262 264 268 289 315 319 309 301 302 309 310 308 307 302 301 308 310 313 317 322 323 324 321 317 312 302 298 299
206 221 226 229 229 219 231 233 248 248 245 242 268 290 318 318 309 301 307 309 308 305 304 297 298 304 311 309 310 314 321 330 334 326 318 310 308 308
212 218 219 213 218 222 234 246 232 228 223 245 272 284 295 301 302 300 307 314 311 311 306 298 306 312 315 310 310 318 320 325 331 329 323 319 317 316
212 216 212 214 225 236 228 218 219 223 239 257 270 280 287 293 290 293 306 312 307 315 318 314 297 313 316 311 310 318 319 322 327 327 324 321 319 320
205 212 211 220 227 210 210 214 224 235 250 260 273 284 289 287 294 300 304 303 307 312 315 321 328 326 318 315 323 322 320 324 327 327 327 324 322 324
203 209 205 201 199 206 212 228 228 242 258 266 279 293 288 293 299 299 296 301 307 306 310 323 333 327 326 325 327 332 329 330 327 325 329 329 326 324
196 199 198 197 206 218 229 230 230 240 263 280 290 292 291 295 292 293 297 304 305 311 315 319 323 321 327 318 318 329 331 329 327 328 333 334 333 330
194 198 208 213 215 220 228 233 237 243 269 293 292 287 283 282 291 296 297 295 304 311 320 321 323 326 328 327 323 322 327 334 331 331 344 343 334 327
206 214 219 223 227 232 229 231 240 259 285 285 290 286 268 265 286 302 295 293 303 308 317 321 325 330 335 334 321 323 329 335 335 334 344 354 341 323
221 222 224 235 238 238 229 238 262 269 281 289 302 296 267 264 286 304 297 292 299 305 314 321 329 329 338 341 325 327 333 337 340 341 345 353 355 354